Погода в Костюковке

Россия / Амурская область     51°18′57″N   127°40′36″E
темп.,
°C
ветер,
м/с
пор.,
м/с
влажн.,
%
обл.,
%
осадки,
мм/ч
давл.,
гПа
погр.,
м
18 апреля, вс
вс1800:00+4юз34430 0.0 101155
03:00+2ююз46550 0.0 101182
06:00+2ю36610 0.0 101181
09:00+8ю57450 0.0 1010467
12:00+13ю66330 0.0 10071184
15:00+15ю66315 0.0 10051570
18:00+14ююв67320 0.0 10041007
21:00+8ююв410555 0.0 1005180
19 апреля, пн
пн1900:00+6ю346577 0.0 100462
03:00+5ю346329 0.0 100353
06:00+4сз10157610 0.0 1005539
09:00+1сз12154892 0.0 1009795
12:00+5сз1114270 0.2 10101381
15:00+5сз1216190 0.2 10111957
18:00+3ссз1217220 0.0 10131891
21:00−1ссз1120290 0.0 10161636
20 апреля, вт
вт2000:00−3сз918330 0.0 10161210
03:00−4сз1017340 0.0 10161064
06:00−4сз1017340 0.0 10171013
09:000сз1015230 0.0 10171155
12:00+5сз810150 0.0 10171538
15:00+8сз68115 0.0 10161537
18:00+9зсз48170 0.0 10151781
21:00+4ю33325 0.0 101521
21 апреля, ср
ср2100:00+3вюв333811 0.0 101627
03:00+2юв49475 0.0 1015118
06:00+1юв34545 0.0 101460
09:00+9ююв56381 0.0 1013312
12:00+17ю69250 0.0 10121089
15:00+22ююз911190 0.0 10091981
18:00+20ю8122495 0.0 10091189
21:00+14ю5113694 0.0 1011206
22 апреля, чт
чт2200:00+12ююв613405 0.0 1011219
03:00+10ююв614495 0.0 1010228
06:00+10ююв7165183 0.0 1010297
09:00+15ю61044100 0.4 1011531
12:00+20ююз6931100 0.0 10111257
15:00+23зюз71023100 0.1 10112255
18:00+17ссз7936100 0.1 1015701
21:00+12с694499 0.1 1019723